Content
SEND FEEDBACK

Daily
Averages
Monthly
Summary
United States of America

PUNTA GORDA, FLORIDA


Home > North America > United States > Florida
Elevation: 18 feet     Latitude: 26 55N     Longitude: 082 00W

WEATHER
 
SELECT A DAY
Number of Records: 181,301;   Date Range: 9/20/96 - 9/3/14
 
SHARE

PRINT THIS DATA

[ ← Previous Day ]
WEATHER ALMANAC - JANUARY 31, 2013
[ Next Day → ]
[ °C ]   °F
Weather ElementAverageHighLow
Temperature61.7 °F72 °F (2:53 am)48 °F (11:53 pm)
Dewpoint51.5 °F68 °F (2:53 am)33.1 °F (4:53 pm)
Humidity72.7 %96 % (5:53 am)31 % (4:53 pm)
Barometer30.11 in30.25 in (10:53 pm)29.96 in (2:53 am)
Wind Speed11 mph21.9 mph (3:31 am)
Wind Gust28.8 mph (3:38 am)
Weather ElementAverage
Visibility8.4 mi
Wind DirectionWNW (295 °)

Weather ElementTotal
Precipitation0.71 in
Heating Degree Days5 (Base 65)
Growing Degree Days10 (Base 50)
Averaged from 32 records on January 31, 2013
WEATHER CONDITIONS BREAKOUT
WIND DIRECTION BREAKOUT
WEATHER BY HOUR - JANUARY 31, 2013
[ °C ]   °F
Local TimeTemperatureDewpointHumidityBarometerVisibilityWind DirectionWind SpeedGust SpeedPrecipitationEventsConditions
1:53 AM71.1 °F66.9 °F87 %29.98 in10.0 miSouth (190°)10.4 mphPartly Cloudy
2:53 AM72.0 °F68.0 °F87 %29.96 in10.0 miSSW (200°)12.7 mphMostly Cloudy
3:31 AM64.4 °F60.8 °F88 %30.00 in3.0 miNNW (340°)21.9 mph27.6 mph0.08 inRainHeavy Rain
3:38 AM62.6 °F60.8 °F94 %30.01 in3.0 miNNW (330°)19.6 mph28.8 mph0.10 inRainRain
3:53 AM62.1 °F60.1 °F93 %30.01 in10.0 miNNW (330°)15.0 mph25.3 mph0.10 inRainLight Rain
4:15 AM60.8 °F59.0 °F94 %30.03 in6.0 miNNW (340°)16.1 mph0.03 inRainLight Rain
4:33 AM60.8 °F57.2 °F88 %30.03 in4.0 miNNW (330°)15.0 mph24.2 mph0.05 inRainLight Rain
4:44 AM60.8 °F57.2 °F88 %30.03 in4.0 miNNW (340°)10.4 mph0.06 inRainLight Rain
4:53 AM60.1 °F57.9 °F93 %30.04 in4.0 miNNW (340°)13.8 mph0.07 inRainLight Rain
5:05 AM60.8 °F57.2 °F88 %30.04 in4.0 miNorth (350°)10.4 mph0.02 inRainLight Rain
5:46 AM59.0 °F57.2 °F94 %30.05 in5.0 miNorth (360°)9.2 mph0.08 inRainLight Rain
5:53 AM59.0 °F57.9 °F96 %30.06 in7.0 miNorth (360°)5.8 mph0.09 inRainLight Rain
6:53 AM60.1 °F57.9 °F93 %30.09 in10.0 miNorth (360°)4.6 mph0.01 inRainLight Rain
7:53 AM61.0 °F57.9 °F90 %30.12 in10.0 miNorth (360°)6.9 mph0.00 inOvercast
8:53 AM61.0 °F57.9 °F90 %30.14 in10.0 miNorth (10°)6.9 mph0.00 inMostly Cloudy
9:17 AM60.8 °F57.2 °F88 %30.14 in10.0 miNE (40°)8.1 mph0.01 inMostly Cloudy
9:53 AM63.0 °F57.9 °F84 %30.16 in10.0 miNorth (350°)10.4 mph0.01 inMostly Cloudy
10:00 AM62.6 °F57.2 °F82 %30.16 in10.0 miNorth (350°)9.2 mphMostly Cloudy
10:53 AM66.9 °F55.9 °F68 %30.17 in10.0 miNorth (10°)9.2 mphMostly Cloudy
11:00 AM66.2 °F55.4 °F68 %30.17 in10.0 miNorth (360°)10.4 mphMostly Cloudy
11:53 AM66.0 °F54.0 °F65 %30.16 in10.0 miVariable4.6 mphPartly Cloudy
12:53 PM69.1 °F50.0 °F51 %30.15 in10.0 miNNW (340°)9.2 mphClear
1:53 PM70.0 °F45.0 °F41 %30.13 in10.0 miNorth (350°)12.7 mphClear
2:53 PM70.0 °F39.9 °F33 %30.13 in10.0 miNNW (340°)11.5 mphClear
3:53 PM68.0 °F39.9 °F36 %30.14 in10.0 miNNW (340°)12.7 mphClear
4:53 PM64.9 °F33.1 °F31 %30.16 in10.0 miNNW (340°)12.7 mphClear
5:53 PM59.0 °F33.1 °F38 %30.18 in10.0 miNNW (340°)11.5 mphClear
7:53 PM53.1 °F34.0 °F48 %30.22 in10.0 miNNW (340°)9.2 mphClear
8:53 PM52.0 °F35.1 °F53 %30.23 in10.0 miNNW (340°)10.4 mphClear
9:53 PM51.1 °F35.1 °F54 %30.23 in10.0 miNNW (340°)12.7 mphClear
10:53 PM48.9 °F36.0 °F61 %30.25 in10.0 miNorth (360°)10.4 mphClear
11:53 PM48.0 °F36.0 °F63 %30.25 in10.0 miNorth (360°)9.2 mphClear
Hourly data recorded from KPGD, located miles away from Punta Gorda, Florida







STORIES FROM OUR PARTNERS